IRIDIUM 69

Last updated on Wed Nov 29 2017 00:19:03 GMT+0000 (Coordinated Universal Time)

1 25319U 98026A 17332.53236221 .00000108 00000-0 28675-4 0 9996 2 25319 86.4002 176.6184 0004002 92.2736 267.8921 14.38705179 26660
UTC large
Height (km)
Speed (km/s)
/
Latitude / Longitude
Inclination (degrees)
Orbital Period (minutes)
Azimuth
Elevation
Range (km)
Doppler Factor

Next 0 passes for location: London (51.5072 / 0.1276)

Sorry there are no passes over London.